Weather History for Cozumel, Mexico

Change the Weather History Date:

Thursday, February 9, 2012

  Actual Average Record
Temperature  
Mean Temperature 72 °F -  
Max Temperature 78 °F 82 °F 87 °F (2008)
Min Temperature 66 °F 68 °F 59 °F (1998)
Cooling Degree Days 7    
Growing Degree Days 22 (Base 50)    
Moisture  
Dew Point 67 °F    
Average Humidity 87    
Maximum Humidity 100    
Minimum Humidity 61    
Precipitation  
Precipitation 0.00 in - - ()
Sea Level Pressure  
Sea Level Pressure 30.00 in    
Wind  
Wind Speed 1 mph ()    
Max Wind Speed 7 mph    
Max Gust Speed -    
Visibility 7.4 miles    
Events      
Averages and records for this station are not official NWS values.
T = Trace of Precipitation, MM = Missing Value Source: Averaged Metar Reports

Daily Weather History Graph

Daily Weather History Graph

Search for Another Location

Airport:

Trip Planner

Search our weather history database for the weather conditions in past years. The results will help you decide how hot, cold, wet, or windy it might be!

Date:

Astronomy

Feb. 09, 2012 Rise Set
Actual Time 6:20 AM CST 5:43 PM CST
Civil Twilight 5:58 AM CST 6:06 PM CST
Nautical Twilight 5:31 AM CST 6:32 PM CST
Astronomical Twilight 5:05 AM CST 6:58 PM CST
Moon 7:43 PM CST (2/9) 7:19 AM CST (2/9)
Length of Visible Light 12h 07m
Length of Day
11h 22m
Waning Gibbous, 96% of the Moon is Illuminated
Feb 9
Waning Gibbous
Feb 14
Last Quarter
Feb 21
New
Feb 29
First Quarter
Mar 8
Full

Hourly Weather History & Observations

Time (CST) Temp. Dew Point Humidity Pressure Visibility Wind Dir Wind Speed Gust Speed Precip Events Conditions
12:44 AM 68.0 °F 66.2 °F 94% 30.01 in 7.0 mi Calm Calm - N/A   Overcast
1:52 AM 68.0 °F 66.2 °F 94% 30.00 in 7.0 mi Calm Calm - N/A   Overcast
2:42 AM 66.2 °F 66.2 °F 100% 30.01 in 7.0 mi Calm Calm - N/A   Overcast
3:44 AM 66.2 °F 66.2 °F 100% 29.97 in 7.0 mi NNW 4.6 mph - N/A   Overcast
4:47 AM 69.8 °F 68.0 °F 94% 29.98 in 7.0 mi NNW 3.5 mph - N/A   Mostly Cloudy
5:48 AM 68.0 °F 68.0 °F 100% 29.97 in 7.0 mi Calm Calm - N/A   Scattered Clouds
6:41 AM 66.2 °F 66.2 °F 100% 30.00 in 7.0 mi Calm Calm - N/A   Partly Cloudy
7:43 AM 71.6 °F 69.8 °F 94% 30.02 in 8.0 mi North 3.5 mph - N/A   Partly Cloudy
8:40 AM 71.6 °F 69.8 °F 94% 30.07 in 8.0 mi Calm Calm - N/A   Partly Cloudy
9:45 AM 75.2 °F 68.0 °F 78% 30.05 in 8.0 mi NNW 3.5 mph - N/A   Scattered Clouds
10:41 AM 77.0 °F 69.8 °F 78% 30.04 in 8.0 mi Calm Calm - N/A   Mostly Cloudy
11:42 AM 77.0 °F 68.0 °F 74% 29.97 in 8.0 mi West 3.5 mph - N/A   Mostly Cloudy
12:47 PM 77.0 °F 68.0 °F 74% 29.99 in 8.0 mi West 4.6 mph - N/A   Mostly Cloudy
1:50 PM 78.8 °F 64.4 °F 61% 29.97 in 8.0 mi Calm Calm - N/A   Mostly Cloudy
2:46 PM 78.8 °F 66.2 °F 65% 29.99 in 8.0 mi Calm Calm - N/A   Mostly Cloudy
3:49 PM 77.0 °F 66.2 °F 69% 29.95 in 8.0 mi SE 5.8 mph - N/A   Scattered Clouds
4:40 PM 75.2 °F 66.2 °F 73% 29.96 in 8.0 mi SE 6.9 mph - N/A   Scattered Clouds
5:43 PM 73.4 °F 66.2 °F 78% 29.95 in 7.0 mi Calm Calm - N/A   Mostly Cloudy
6:45 PM 69.8 °F 66.2 °F 88% 29.99 in 7.0 mi Calm Calm - N/A   Mostly Cloudy
7:51 PM 69.8 °F 68.0 °F 94% 30.01 in 7.0 mi Calm Calm - N/A   Scattered Clouds
8:44 PM 68.0 °F 66.2 °F 94% 30.04 in 7.0 mi Calm Calm - N/A   Scattered Clouds
9:50 PM 68.0 °F 66.2 °F 94% 30.04 in 7.0 mi Calm Calm - N/A   Mostly Cloudy
10:41 PM 68.0 °F 66.2 °F 94% 30.04 in 7.0 mi Calm Calm - N/A   Mostly Cloudy
11:49 PM 66.2 °F 64.4 °F 94% 30.00 in 7.0 mi Calm Calm - N/A   Mostly Cloudy